Lapse_Rate
6.8 5.6 6.4 6.1 6.6 6.6 6.9 7.3 7.4 7.2 7.0 7.3 6.9 6.9 6.9 6.2 6.2 6.4 7.3 7.0 7.0 6.9 6.8 6.8 6.6 6.7 6.9 7.0 7.1 6.9 6.9 6.8 6.8 6.7 6.7 6.7 6.8 6.8 6.8 6.9 7.1 7.1 7.0
6.8 6.2 6.1 5.5 5.6 6.1 6.2 6.5 7.3 7.4 7.1 7.1 6.3 6.9 7.1 5.9 6.2 6.4 7.0 6.9 6.9 7.0 6.9 6.8 6.6 6.8 6.8 6.9 7.0 6.9 6.8 6.8 6.7 6.6 6.7 6.7 6.8 6.8 6.8 7.0 7.0 7.1 7.0
6.8 6.9 6.4 6.0 5.3 5.3 6.1 6.4 6.7 7.2 7.1 7.0 6.1 7.2 6.9 6.4 6.2 6.4 7.0 6.9 6.8 6.9 6.9 6.8 6.6 6.7 6.8 6.8 7.0 6.9 6.8 6.7 6.6 6.6 6.6 6.7 6.8 6.8 6.8 6.9 6.9 7.0 6.9
6.3 6.7 6.4 5.2 5.5 5.5 5.7 5.9 6.0 6.8 7.2 6.5 6.7 6.6 6.4 6.6 6.2 6.2 7.0 7.0 6.8 6.8 7.0 6.9 6.8 6.9 6.9 6.8 6.9 6.9 6.9 6.8 6.7 6.7 6.7 6.8 6.9 6.9 6.8 6.9 6.9 6.9 6.8
6.5 6.3 6.2 6.2 5.9 5.0 4.8 5.2 5.7 6.1 6.5 6.6 6.3 6.9 6.2 6.9 6.6 6.5 6.8 6.7 7.0 6.8 6.9 7.0 6.9 7.0 6.9 6.8 6.9 6.9 6.9 6.9 6.8 6.8 6.7 6.8 6.9 6.8 6.8 6.8 6.8 6.8 6.7
6.3 6.2 5.6 6.4 5.9 5.9 5.3 5.3 5.5 6.1 6.0 7.1 6.4 6.3 6.2 6.5 6.3 6.5 6.8 6.6 6.7 6.8 6.9 6.9 6.8 7.0 6.9 6.9 6.9 7.0 7.0 7.0 6.9 6.8 6.8 6.8 6.8 6.7 6.8 6.7 6.8 6.7 6.6
6.0 5.9 6.1 5.9 6.2 5.9 5.6 5.9 5.4 5.6 6.0 6.4 6.2 6.2 6.6 6.1 6.0 6.2 6.4 6.6 6.6 6.8 6.8 6.8 6.7 6.8 7.0 7.0 6.9 7.0 7.1 7.1 7.0 6.9 6.9 6.8 6.8 6.7 6.7 6.6 6.7 6.6 6.6
5.7 5.9 5.8 5.7 5.7 5.9 5.9 5.6 5.4 5.1 5.8 6.3 6.1 6.3 6.2 6.0 6.1 5.9 6.6 6.7 6.6 6.7 6.8 6.7 6.7 7.0 7.1 7.1 7.1 7.2 7.2 7.2 7.1 7.0 6.9 6.8 6.8 6.7 6.6 6.6 6.6 6.6 6.6
5.1 5.5 5.9 6.1 5.8 5.8 6.4 6.3 5.6 4.8 5.3 5.8 6.0 5.9 6.1 5.9 6.4 6.3 6.5 6.7 6.6 6.6 6.8 6.6 6.7 6.9 7.1 7.2 7.3 7.3 7.3 7.1 7.2 7.2 7.1 6.9 6.8 6.8 6.7 6.6 6.5 6.5 6.5
4.6 4.9 5.4 5.8 6.1 6.0 5.7 6.3 5.3 5.0 4.9 5.7 5.6 6.0 6.4 6.8 7.2 6.9 6.4 6.7 6.6 6.8 6.6 6.6 6.7 6.9 7.2 7.3 7.5 7.4 7.4 7.3 7.3 7.3 7.1 6.9 6.8 6.8 6.7 6.6 6.5 6.5 6.4
5.4 5.1 4.8 5.4 5.7 6.1 6.0 5.7 6.2 5.4 5.1 5.4 5.4 6.2 6.4 6.6 6.8 7.0 6.9 7.1 6.7 6.9 6.8 6.6 6.6 7.0 7.2 7.5 7.5 7.6 7.5 7.4 7.3 7.2 7.2 7.0 6.9 6.8 6.7 6.7 6.6 6.5 6.5
5.5 5.3 5.0 5.0 5.4 5.7 5.9 5.6 6.0 5.3 5.3 4.1 5.6 5.9 6.1 6.7 6.7 6.8 6.3 6.8 7.2 7.3 7.2 6.6 6.6 6.9 7.3 7.5 7.6 7.8 7.8 7.7 7.5 7.3 7.2 7.2 7.0 6.9 6.8 6.7 6.7 6.6 6.5
5.6 5.4 5.3 5.1 5.2 5.4 5.6 5.6 5.7 5.8 5.0 5.7 4.9 5.5 5.7 6.5 6.7 6.3 6.5 6.5 7.0 7.0 6.9 7.0 6.7 6.6 7.2 7.5 7.7 7.8 8.0 7.8 7.7 7.6 7.4 7.2 7.2 7.1 7.0 6.8 6.8 6.7 6.6
5.2 5.4 5.0 5.1 5.0 5.3 5.4 5.5 5.7 5.9 6.0 5.5 5.3 4.1 5.2 5.9 6.3 6.1 5.6 5.5 5.9 6.6 7.0 7.0 7.1 6.9 7.2 7.7 7.9 7.9 8.0 7.8 7.7 7.7 7.6 7.4 7.3 7.2 7.1 6.9 6.9 6.9 6.7
5.0 5.3 4.8 4.9 5.0 4.9 5.2 5.1 5.4 5.7 5.8 6.4 5.4 4.9 5.4 5.6 5.6 5.8 5.9 6.0 5.5 5.7 6.2 7.3 6.8 7.0 7.4 7.5 7.8 7.8 7.8 7.7 7.6 7.6 7.6 7.6 7.4 7.3 7.2 7.1 7.0 6.9 6.9
4.9 4.9 5.0 4.6 4.8 4.7 4.9 5.2 5.1 5.0 5.2 5.6 5.8 5.3 4.7 4.5 5.4 5.7 5.6 5.7 5.7 5.2 5.7 6.2 7.4 7.2 7.2 7.4 7.4 7.6 7.7 7.8 7.7 7.6 7.5 7.4 7.4 7.3 7.3 7.3 7.2 7.0 7.0
4.8 4.7 5.0 4.5 4.4 4.6 4.4 4.9 5.4 5.0 4.6 5.1 5.7 5.1 5.1 4.6 4.7 4.9 5.3 5.7 5.9 5.8 5.5 5.9 6.2 7.0 7.3 7.2 7.3 7.2 7.3 7.4 7.5 7.4 7.5 7.3 7.3 7.3 7.4 7.4 7.3 7.2 7.2
4.9 4.5 4.7 4.8 4.3 4.3 4.3 4.8 5.2 5.4 4.8 4.3 4.2 4.9 4.8 4.7 5.0 4.8 4.7 5.0 5.8 6.0 6.0 5.4 5.8 6.1 6.1 7.3 7.4 7.4 7.6 7.5 7.4 7.3 7.3 7.3 7.1 7.2 7.2 7.2 7.3 7.4 7.3
4.9 4.4 4.4 4.7 4.6 4.2 4.2 4.4 4.7 5.3 5.2 4.4 4.0 4.5 5.1 6.0 5.0 4.9 5.2 5.0 5.1 5.6 5.8 6.2 5.8 5.7 5.8 6.5 7.3 7.2 7.4 7.3 7.2 7.2 7.1 7.0 7.0 7.0 6.9 7.0 7.2 7.3 7.3
4.7 4.3 4.1 4.3 4.6 4.1 4.0 4.5 4.8 5.2 5.0 4.7 4.6 4.3 4.4 5.4 5.5 5.1 5.0 5.0 5.2 5.3 5.9 5.5 5.8 5.9 5.4 6.1 6.9 7.2 7.2 7.5 7.3 7.4 7.3 7.1 7.1 7.0 7.0 7.1 7.1 7.1 7.3
4.8 4.5 4.3 4.3 4.3 4.3 4.2 4.2 5.1 4.9 4.9 5.3 4.4 4.2 4.3 5.0 4.9 5.5 4.5 4.8 5.2 5.5 5.2 5.3 5.3 5.8 5.8 5.5 6.2 7.3 7.1 7.3 7.5 7.2 7.2 7.1 7.1 7.1 7.2 7.2 7.2 7.4 7.3
4.9 4.5 4.2 4.1 3.9 4.4 4.2 4.4 4.7 5.2 5.0 5.2 5.0 4.6 4.6 4.7 4.5 4.5 4.8 5.0 5.1 5.0 5.7 5.6 5.5 5.6 5.8 5.9 5.8 6.6 7.3 7.1 7.1 7.3 7.1 7.1 7.2 7.1 7.2 7.4 7.4 7.4 7.4
4.8 4.3 4.3 4.4 4.2 4.7 4.6 4.2 4.3 4.8 5.4 5.1 5.5 5.2 4.6 4.5 4.5 4.3 4.3 4.8 5.1 5.4 5.4 5.5 5.4 5.5 5.6 5.8 5.9 6.2 7.2 7.3 7.1 7.3 7.3 7.3 7.3 7.4 7.3 7.3 7.4 7.5 7.4
4.9 4.6 4.3 4.3 4.2 4.5 4.6 4.3 3.8 4.4 4.7 4.9 5.5 5.6 5.1 4.6 4.3 4.0 4.2 4.3 4.6 5.0 4.9 4.8 5.2 5.2 5.4 5.7 5.6 5.7 6.9 7.6 7.5 7.3 7.3 7.2 7.1 7.1 7.3 7.2 7.0 7.2 7.2
4.8 4.6 4.4 4.4 4.6 4.3 4.2 4.4 4.1 4.0 4.5 4.4 4.9 5.3 5.4 4.9 4.3 3.8 4.1 4.2 4.1 4.8 4.9 4.8 4.7 5.3 5.6 5.6 5.6 5.5 5.6 6.4 6.8 7.0 6.8 6.8 6.9 6.9 6.9 7.1 7.1 7.0 7.1
4.8 4.7 4.6 4.3 4.5 4.5 4.0 4.2 4.1 4.2 4.0 4.1 4.3 4.6 5.4 5.6 5.2 4.8 4.2 4.0 4.1 4.3 4.5 4.7 4.9 5.0 5.2 5.4 5.4 5.5 5.5 5.9 6.5 6.8 6.9 6.6 6.8 6.8 6.8 6.8 7.1 7.1 7.0
Wind_Speed
8 14 9 13 12 15 15 12 15 15 18 19 18 20 19 12 21 15 18 30 30 26 24 24 24 23 22 20 19 19 19 19 18 18 17 18 18 18 18 18 19 20 19
14 10 10 8 12 15 17 15 12 12 12 15 12 16 16 14 9 19 18 23 31 28 26 23 24 24 23 22 20 20 20 19 19 18 18 18 19 19 18 19 19 19 20
16 15 9 10 7 12 19 18 15 14 12 12 13 10 7 14 11 9 19 21 25 29 28 26 24 24 23 22 21 20 20 20 20 19 19 20 18 20 20 20 19 18 19
16 13 8 11 13 8 13 12 11 12 12 9 10 11 12 12 12 15 19 21 24 22 25 28 26 26 26 24 23 22 21 21 21 21 20 21 20 19 20 19 19 17 17
21 11 9 11 16 6 8 10 11 13 11 10 12 11 11 11 13 14 15 19 23 23 23 26 29 26 27 26 24 24 23 22 22 22 22 21 20 19 19 19 18 17 15
25 22 9 10 11 7 6 8 20 16 13 11 12 10 9 12 13 13 12 16 20 23 23 25 23 23 27 28 27 25 25 25 24 23 24 23 19 19 18 18 17 16 15
24 20 14 8 10 8 10 11 13 15 14 12 11 11 10 6 10 13 13 9 13 21 22 23 23 20 21 28 28 26 26 27 25 24 26 23 21 16 18 17 14 16 17
23 20 16 12 8 8 9 12 10 14 13 14 10 12 8 7 9 7 9 10 13 18 18 22 22 25 25 25 24 29 27 27 27 27 27 25 19 19 17 17 15 17 18
23 22 21 15 12 8 7 11 13 15 14 15 18 9 10 6 10 8 11 10 13 10 12 21 24 24 23 24 29 31 33 31 29 29 28 24 21 21 19 18 18 17 18
23 22 22 19 13 10 8 9 10 12 11 18 14 13 14 11 13 7 12 8 10 12 12 13 18 23 27 22 28 31 37 37 33 31 29 28 24 24 23 21 20 20 19
22 23 21 21 12 10 9 11 12 14 17 15 16 15 14 10 14 10 11 8 8 11 11 13 12 16 20 24 21 29 40 43 38 35 33 31 30 27 25 24 22 22 21
11 20 22 20 16 12 11 10 11 14 12 17 12 14 15 14 11 13 10 14 16 11 10 12 13 12 21 21 23 25 43 44 43 39 36 34 33 31 29 26 25 24 24
11 13 16 15 14 13 12 10 11 11 13 13 11 6 14 13 8 9 10 10 10 11 7 9 13 15 18 22 23 22 42 46 46 43 40 38 36 34 33 30 29 27 25
12 17 14 17 18 18 14 10 9 9 12 11 20 7 14 4 3 2 3 7 8 12 13 16 14 14 18 19 23 29 25 43 46 45 44 43 40 39 37 35 33 31 30
12 15 16 15 15 17 15 15 8 11 10 11 11 19 11 3 5 5 3 3 8 10 13 14 11 18 14 20 20 23 26 34 43 45 45 43 42 42 40 38 38 36 34
14 15 15 15 17 16 16 15 12 10 11 9 9 16 18 12 9 7 5 3 8 12 11 11 14 14 15 15 21 22 25 31 42 43 45 45 44 44 43 42 41 40 39
14 14 14 13 17 15 17 15 14 13 12 11 11 11 15 16 10 8 6 7 8 11 12 9 12 14 19 18 15 25 23 23 26 43 45 45 45 44 45 45 44 43 42
13 14 14 14 15 15 15 17 15 13 13 13 12 11 13 11 16 11 8 11 9 13 8 14 12 12 13 19 17 15 14 23 23 35 42 43 43 45 45 46 45 45 45
12 13 15 14 14 16 16 17 17 12 13 12 11 9 11 13 15 11 12 13 13 11 8 10 11 11 12 12 14 14 14 15 21 24 44 44 42 41 41 44 43 43 45
13 12 13 14 14 14 18 18 18 15 11 12 11 10 10 11 16 16 16 17 14 12 11 11 8 9 10 12 11 13 12 12 13 17 25 30 34 35 41 43 39 44 46
14 14 14 13 13 11 13 18 18 16 14 13 10 11 10 14 19 14 10 17 16 14 13 12 12 9 6 7 13 11 13 12 14 12 9 10 11 19 25 31 34 39 39
16 14 13 13 12 8 22 26 23 14 14 13 12 11 12 13 15 16 16 13 16 18 17 13 14 13 16 13 10 12 12 11 10 11 13 11 13 12 13 24 37 41 41
15 13 13 13 13 13 22 25 27 11 10 11 11 11 11 9 12 13 15 14 11 11 14 17 16 17 18 18 13 15 16 14 12 8 14 13 12 13 13 23 35 40 40
14 12 12 13 12 11 21 25 26 13 10 10 11 11 11 11 13 13 12 8 9 7 11 9 16 16 18 17 20 16 16 16 12 10 15 13 12 13 10 16 27 37 39
13 13 11 13 13 14 20 25 22 14 12 11 9 9 10 11 18 23 11 9 4 5 8 7 9 13 10 11 15 13 13 13 11 11 11 10 6 8 2 9 13 34 38
13 11 12 12 13 14 19 24 21 10 12 9 9 10 14 14 17 20 10 10 8 7 8 7 6 8 13 12 11 14 14 15 13 10 4 10 1 4 1 2 5 9 15
Wind_Direction
328 329 279 246 217 205 209 201 213 203 214 221 193 197 211 232 175 154 162 163 161 170 173 177 170 173 170 165 164 163 164 165 162 162 159 156 152 146 143 139 135 131 123
330 342 328 227 239 230 218 215 215 199 218 219 202 201 209 195 235 165 159 177 167 177 177 181 177 177 177 174 169 170 170 170 169 169 167 164 155 154 150 146 142 136 131
345 339 336 298 245 271 251 237 220 213 211 221 203 196 211 205 224 153 158 175 179 185 179 185 181 181 181 179 176 176 175 176 177 177 174 167 160 159 159 153 149 146 141
341 343 333 339 347 319 257 258 238 237 205 200 200 225 202 192 217 205 173 175 180 187 185 189 188 186 183 181 184 184 183 183 181 184 182 172 166 169 168 159 153 154 151
343 350 319 327 327 299 277 240 249 241 225 214 206 216 195 204 191 216 189 188 180 182 188 190 188 193 189 186 187 191 190 189 189 190 186 178 172 177 172 166 167 166 161
341 335 316 326 330 278 284 249 247 229 226 210 207 207 235 198 185 193 204 196 192 185 186 181 188 194 197 192 191 193 196 194 196 188 185 183 178 180 179 175 175 174 174
338 336 331 318 319 303 294 273 276 225 224 235 187 203 235 261 225 185 182 192 195 196 192 185 186 190 196 201 199 198 200 197 198 192 184 185 180 191 188 192 198 185 182
344 338 329 323 299 305 307 266 267 232 229 233 203 192 198 228 246 223 190 182 195 194 196 188 191 191 194 195 204 202 203 203 198 194 186 187 199 202 205 207 201 199 189
345 340 335 335 329 313 303 300 270 245 227 227 226 192 192 203 193 221 209 201 193 196 204 197 200 201 203 187 192 204 206 206 200 195 189 191 203 203 205 211 207 210 200
345 343 335 331 322 313 303 303 317 264 265 243 214 205 196 203 189 181 211 209 209 193 202 219 190 201 196 202 191 191 203 209 203 193 190 186 203 205 204 209 213 214 204
346 342 341 326 330 316 312 308 304 306 241 262 220 205 201 202 193 205 178 180 215 208 197 211 220 204 215 197 208 189 191 204 206 195 192 188 195 203 206 207 213 216 209
339 340 342 330 330 321 324 317 301 295 290 243 211 198 208 198 202 211 198 178 195 202 199 216 220 214 200 215 214 193 188 195 202 202 196 190 191 201 205 207 211 215 217
334 340 339 336 327 332 324 320 309 299 288 282 245 285 216 212 205 226 219 179 181 186 190 215 221 226 206 202 209 203 186 192 197 199 198 197 194 199 205 209 207 212 215
334 330 335 336 330 331 332 326 313 301 293 311 228 221 225 169 158 186 353 291 201 181 187 195 213 221 217 206 203 200 187 191 195 197 200 201 200 203 205 206 213 215 216
328 334 334 334 336 330 334 330 317 306 300 288 273 230 237 294 272 243 253 260 310 218 198 190 197 218 208 214 202 191 198 196 195 199 201 203 203 205 207 207 211 216 218
334 333 332 343 338 337 332 336 327 314 303 293 308 218 228 214 217 227 236 242 287 297 223 200 196 195 210 208 204 197 201 185 197 201 204 205 206 207 208 210 212 215 217
337 334 334 342 339 341 340 334 333 325 322 305 289 287 208 202 200 212 198 220 246 270 273 216 189 195 194 211 208 202 201 194 195 202 206 207 208 209 210 212 213 216 218
336 337 335 336 345 344 344 338 333 333 328 318 307 304 244 206 206 196 202 225 239 248 259 262 246 181 196 196 209 201 205 204 204 204 207 209 211 212 213 216 216 216 219
337 341 335 340 345 346 348 342 334 338 332 322 319 311 287 248 207 201 203 216 216 242 248 253 250 245 191 182 194 214 200 213 211 207 203 207 211 214 215 218 219 219 223
344 344 332 342 346 350 353 345 340 333 338 338 337 325 337 319 232 214 212 213 213 218 231 234 259 246 220 193 189 197 208 202 218 217 197 204 209 211 216 221 220 222 224
346 342 340 350 347 354 359 347 344 333 340 346 346 354 6 8 2 352 262 217 211 208 220 225 231 247 254 197 194 193 205 203 211 211 207 192 196 206 218 220 223 225 225
341 345 347 351 345 349 354 352 346 331 338 348 349 355 8 9 355 353 335 311 251 209 216 212 222 227 234 245 200 200 203 204 206 201 209 209 193 204 212 207 215 220 219
339 344 352 352 348 355 357 353 345 330 341 340 354 359 360 1 358 356 327 301 263 261 233 216 218 220 223 220 235 202 207 212 212 194 199 215 205 211 213 220 211 208 212
340 346 358 348 349 353 3 352 348 336 338 339 350 357 4 358 356 355 326 300 265 237 240 236 232 240 235 227 221 219 210 219 227 205 194 212 207 219 211 219 208 205 208
338 347 354 354 350 351 7 355 352 345 342 342 346 354 359 360 353 6 356 342 347 23 348 336 304 289 289 306 239 226 213 214 221 221 197 208 194 204 231 214 212 202 204
344 347 355 358 351 355 2 356 353 344 345 339 353 357 359 359 2 11 8 358 8 359 343 340 339 262 241 264 274 250 224 215 214 221 243 203 116 134 257 227 230 191 210